EW6103 Weather Reports


Display with metric or nautical units.
time (UTC)temp
F
wind
direction
speed
MPH
gust
MPH
rain 1hr
in
rain 24hr
in
rain mn
in
humidity
%
barometer
mb
20191115130006 52 180 8.0 13.0 0.00 0.00 0.00 80 1004.7
20191115125007 52 135 8.0 19.0 0.00 0.00 0.00 80 1004.8
20191115123007 52 135 8.0 13.0 0.00 0.00 0.00 79 1004.7
20191115122007 52 135 11.0 17.0 0.00 0.00 0.00 78 1004.7
20191115121009 52 90 8.0 13.0 0.00 0.00 0.00 78 1004.7
20191115120009 53 180 8.0 14.0 0.00 0.00 0.00 78 1004.7
20191115113009 52 135 10.0 23.0 0.00 0.00 0.00 80 1004.5
20191115112007 52 135 10.0 16.0 0.00 0.00 0.00 80 1004.6
20191115111008 53 135 9.0 15.0 0.00 0.00 0.00 80 1004.6
20191115110008 52 90 11.0 21.0 0.00 0.00 0.00 81 1004.6
20191115105006 52 180 10.0 17.0 0.00 0.00 0.00 81 1004.3
20191115104006 51 0 11.0 20.0 0.00 0.00 0.00 82 1004.6
20191115102006 50 90 12.0 19.0 0.00 0.00 0.00 84 1004.6
20191115100009 50 180 13.0 21.0 0.00 0.00 0.00 84 1004.8
20191115095008 50 45 13.0 24.0 0.00 0.00 0.00 84 1004.7
20191115094009 50 135 13.0 25.0 0.00 0.00 0.00 84 1004.7
20191115092008 49 180 11.0 19.0 0.00 0.00 0.00 85 1005.1
20191115085009 48 135 11.0 19.0 0.00 0.00 0.00 86 1005.9
20191115084007 48 135 10.0 18.0 0.00 0.00 0.00 86 1006.0
20191115083006 48 135 8.0 17.0 0.00 0.00 0.00 85 1006.3
20191115082009 48 135 10.0 18.0 0.00 0.00 0.00 86 1006.3
20191115080008 48 135 11.0 18.0 0.00 0.00 0.00 86 1006.2
20191115072007 47 135 9.0 14.0 0.00 0.00 0.00 87 1006.3
20191115071007 47 135 7.0 16.0 0.00 0.00 0.00 88 1006.1
20191115065008 46 90 8.0 16.0 0.00 0.00 0.00 88 1006.2
20191115064007 46 135 9.0 15.0 0.00 0.00 0.00 88 1006.1
20191115063009 46 135 7.0 12.0 0.00 0.00 0.00 88 1006.1
20191115062007 46 135 7.0 12.0 0.00 0.00 0.00 88 1006.2
20191115060009 45 135 6.0 11.0 0.00 0.00 0.00 89 1006.1
20191115054006 45 180 8.0 13.0 0.00 0.00 0.00 87 1006.0
20191115053007 45 90 7.0 13.0 0.00 0.00 0.00 86 1006.1
20191115050007 44 180 8.0 16.0 0.00 0.00 0.00 87 1006.3
20191115045008 45 90 6.0 14.0 0.00 0.00 0.00 86 1006.4
20191115044008 45 90 6.0 15.0 0.00 0.00 0.00 86 1006.5
20191115042007 44 0 9.0 16.0 0.00 0.00 0.00 87 1006.3
20191115040008 44 135 9.0 18.0 0.00 0.00 0.00 87 1006.1
20191115035008 44 90 8.0 17.0 0.00 0.00 0.00 87 1006.1
20191115034007 44 90 10.0 15.0 0.00 0.00 0.00 87 1006.2
20191115031007 44 135 10.0 19.0 0.00 0.00 0.00 86 1006.6
20191115030007 43 90 7.0 17.0 0.00 0.00 0.00 87 1006.9
20191115025006 42 135 6.0 12.0 0.00 0.00 0.00 88 1007.2
20191115022007 42 135 6.0 13.0 0.00 0.00 0.00 86 1007.4
20191115020008 42 90 5.0 11.0 0.00 0.00 0.00 86 1007.3
20191115015009 43 135 6.0 15.0 0.00 0.00 0.00 85 1007.3
20191115013009 42 90 6.0 11.0 0.00 0.00 0.00 87 1007.5
20191115012007 42 90 4.0 11.0 0.00 0.00 0.00 87 1007.7
20191115011007 42 135 5.0 10.0 0.00 0.00 0.00 86 1007.7
20191115005007 43 90 6.0 13.0 0.00 0.00 0.00 83 1007.3
20191115004007 42 135 6.0 11.0 0.00 0.00 0.00 84 1007.4
20191115003007 43 135 5.0 11.0 0.00 0.00 0.00 83 1007.7
20191114235007 42 135 4.0 9.0 0.00 0.00 0.00 84 1008.2
20191114232008 42 135 6.0 17.0 0.00 0.00 0.00 84 1008.2
20191114231006 42 135 4.0 11.0 0.00 0.00 0.00 85 1008.2
20191114225007 41 45 4.0 11.0 0.00 0.00 0.00 85 1008.8
20191114224007 41 90 4.0 8.0 0.00 0.00 0.00 85 1008.7
20191114223009 41 90 6.0 10.0 0.00 0.00 0.00 86 1008.7
20191114222008 40 45 6.0 10.0 0.00 0.00 0.00 87 1008.8
20191114220006 40 135 4.0 7.0 0.00 0.00 0.00 89 1009.1
20191114215009 39 180 4.0 6.0 0.00 0.00 0.00 91 1009.2
20191114213008 36 45 3.0 4.0 0.00 0.00 0.00 95 1009.8
20191114211008 36 45 3.0 4.0 0.00 0.00 0.00 95 1009.9
20191114204007 35 45 2.0 3.0 0.00 0.00 0.00 97 1010.1
20191114202009 36 45 3.0 4.0 0.00 0.00 0.00 96 1009.9
20191114200008 34 45 2.0 4.0 0.00 0.00 0.00 99 1009.9
20191114194009 32 45 1.0 2.0 0.00 0.01 0.00 99 1010.1
20191114193009 31 45 0.0 1.0 0.00 0.01 0.00 99 1010.3
20191114192006 32 45 0.0 1.0 0.00 0.01 0.00 99 1010.4
20191114191006 32 0 0.0 2.0 0.00 0.02 0.00 99 1010.3
20191114190008 32 45 1.0 2.0 0.00 0.02 0.00 99 1010.3
20191114185008 32 45 1.0 2.0 0.00 0.03 0.00 99 1010.4
20191114183007 33 45 1.0 3.0 0.00 0.04 0.00 99 1010.4
20191114181008 32 45 0.0 1.0 0.00 0.05 0.00 98 1010.6
20191114180009 33 0 0.0 1.0 0.00 0.06 0.00 97 1010.4
20191114175007 33 0 0.0 1.0 0.00 0.06 0.00 96 1010.3
20191114174008 34 45 1.0 2.0 0.00 0.07 0.00 96 1010.3
20191114172007 36 90 1.0 2.0 0.00 0.07 0.00 95 1010.4
20191114171006 36 45 1.0 2.0 0.00 0.08 0.00 94 1010.4
20191114164007 36 45 1.0 3.0 0.00 0.08 0.00 94 1010.3
20191114163008 36 45 1.0 3.0 0.00 0.08 0.00 94 1010.3
20191114162007 36 135 1.0 2.0 0.00 0.08 0.00 93 1010.5
20191114161007 37 45 1.0 2.0 0.00 0.08 0.00 93 1010.2
20191114155007 37 45 1.0 4.0 0.00 0.08 0.00 92 1010.2
20191114154007 37 45 2.0 3.0 0.00 0.08 0.00 92 1010.0
20191114150009 41 45 2.0 4.0 0.00 0.09 0.00 84 1009.9
20191114145008 42 90 2.0 7.0 0.00 0.09 0.00 83 1010.0
20191114143008 43 90 3.0 5.0 0.00 0.11 0.00 83 1010.1
20191114142013 44 45 1.0 3.0 0.00 0.11 0.00 81 1010.2
20191114140009 43 90 3.0 5.0 0.00 0.13 0.00 81 1010.3
20191114135007 44 135 3.0 7.0 0.00 0.13 0.00 80 1010.3
20191114134008 44 90 3.0 6.0 0.00 0.14 0.00 78 1010.3
20191114133008 45 135 4.0 6.0 0.00 0.15 0.00 78 1010.4